Location: Seattle
(47.6064°N, 122.3308°W)
Time: 07:18:50
(UTC-08:00)

CZ-6A DEB - Pass Details

Date: 12 December 2023
Orbit: 685 x 828 km, 98.7° (Epoch: 04 March)

Event Time Altitude Azimuth Distance (km) Brightness Sun altitude
Rises 06:58:54 0° 15° (NNE) 3,308 ? -8.0°
Reaches altitude 10° 07:01:18 10° 18° (NNE) 2,351 ? -7.7°
Maximum altitude 07:06:29 75° 103° (ESE) 791 ? -6.9°
Drops below altitude 10° 07:11:23 10° 189° (S) 2,233 ? -6.2°
Sets 07:13:37 0° 191° (SSW) 3,129 ? -5.8°
